Location: Bassano
(45.7667°N, 11.7333°E)
Time: 18:33:13
(UTC+00:00)

Cosmos 1869 - Pass Details

Date: 07 June 2020
Orbit: 519 x 563 km, 82.5° (Epoch: 04 July)

Event Time Altitude Azimuth Distance (km) Brightness Sun altitude
Rises 01:24:56 0° 347° (NNW) 2,660 7.5 -15.1°
Reaches altitude 10° 01:27:06 10° 344° (NNW) 1,765 6.5 -14.9°
Maximum altitude 01:30:54 60° 265° (W) 602 3.3 -14.5°
Enters shadow 01:33:02 24° 192° (SSW) 1,108 4.3 -14.3°
